This is the latest recevied weather packets stored in our database for station/object NI4CE-11. If no packets are shown the sender has not sent any weather packets the latest 10 day(s).
| Time | Temp. | Humidity | Pressure | Rain* | Wind** | Luminosity | Snow |
|---|---|---|---|---|---|---|---|
| 1777098345 | 20.56° C | 100% | 1011.9 hPa | 0 mm | - | - | - |
| 1777098045 | 21.11° C | 100% | 1011.9 hPa | 0 mm | - | - | - |
| 1777097824 | 20° C | 100% | 1012 hPa | 0 mm | - | - | - |
| 1777097746 | 19.44° C | 100% | 1012 hPa | 0 mm | - | - | - |
| 1777097446 | 20° C | 100% | 1011.9 hPa | 0 mm | - | - | - |
| 1777097146 | 20° C | 100% | 1012 hPa | 0 mm | - | - | - |
| 1777096944 | 20° C | 100% | 1012.2 hPa | 0 mm | - | - | - |
| 1777096846 | 19.44° C | 100% | 1012.1 hPa | 0 mm | - | - | - |
| 1777096546 | 20° C | 100% | 1012.2 hPa | 0 mm | - | - | - |
| 1777096408 | 19.44° C | 100% | 1012.2 hPa | 0 mm | - | - | - |
| 1777096246 | 20° C | 100% | 1012.2 hPa | 0 mm | - | - | - |
| 1777095946 | 18.89° C | 100% | 1012.2 hPa | 0 mm | - | - | - |
| 1777095646 | 19.44° C | 100% | 1012.2 hPa | 0 mm | - | - | - |
| 1777095584 | 21.11° C | 100% | 1012.3 hPa | 0 mm | - | - | - |
| 1777095346 | 20° C | 100% | 1012.3 hPa | 0 mm | - | - | - |
| 1777095046 | 21.11° C | 100% | 1012.3 hPa | 0 mm | - | - | - |
| 1777094751 | 20.56° C | 100% | 1012.7 hPa | 0 mm | - | - | - |
| 1777094746 | 20.56° C | 100% | 1012.3 hPa | 0 mm | - | - | - |
| 1777094446 | 21.11° C | 100% | 1012.4 hPa | 0 mm | - | - | - |
| 1777094146 | 21.11° C | 100% | 1012.6 hPa | 0 mm | - | - | - |
| 1777093846 | 20.56° C | 100% | 1012.7 hPa | 0 mm | - | - | - |
| 1777093546 | 18.89° C | 100% | 1012.7 hPa | 0 mm | - | - | - |
| 1777093246 | 20° C | 100% | 1012.7 hPa | 0 mm | - | - | - |
| 1777092946 | 20.56° C | 100% | 1012.7 hPa | 0 mm | - | - | - |
| 1777092858 | 20° C | 100% | 1013 hPa | 0 mm | - | - | - |
* Rain latest hour (hover to see other rain measurements)
** Current wind speed in m/s (hover to see current wind gust speed)